Simultaneous Nadir Overpasses (SNOs) Predictions

Prediction of SNOs near US between AQUA and NPP Satellite Orbit:

Table of predicted SNOs near US for the next 10.0 days since TLE Epoch: 1/29/2016
Index Date (AQUA) Time (AQUA) AQUA Lat,Lon Date (NPP) Time (NPP) NPP Lat,Lon Distance(km) Time Diff (sec)
1 01/30/2016 08:34:18 23.11,-101.16 01/30/2016 08:26:49 23.16,-101.28 13.71 449
2 01/30/2016 10:10:40 32.20,-123.57 01/30/2016 10:05:42 32.34,-124.20 61.18 298
3 02/02/2016 07:18:50 49.91, -75.98 02/02/2016 07:21:52 50.37, -78.19 165.54 182
4 02/02/2016 08:57:43 49.92,-100.70 02/02/2016 09:03:20 50.47,-103.52 210.00 337
5 02/04/2016 18:16:59 49.97, -80.19 02/04/2016 18:12:07 49.72, -81.71 112.98 292
6 02/04/2016 19:55:52 49.97,-104.91 02/04/2016 19:53:35 49.61,-107.04 158.23 137
7 02/04/2016 21:30:52 36.07,-124.82 02/04/2016 21:31:02 35.54,-127.34 234.67 10
8 02/07/2016 07:45:40 20.04, -89.50 02/07/2016 07:37:20 18.18, -89.80 209.46 500
9 02/07/2016 09:22:33 27.27,-112.48 02/07/2016 09:16:13 27.37,-112.86 39.43 380




NCC Satellite Simultaneous Nadir Overpasses (SNOs) Prediction Service
